Skip Page Navigation
NASA JPL Caltech
NASA Logo - Jet Propulsion Laboratory + View the NASA Portal
+ Center for Near-Earth Object Studies
JPL Home Earth Solar System Stars & Galaxies Technology
JPL Solar System Dynamics
BODIES ORBITS EPHEMERIDES TOOLS PHYSICAL DATA DISCOVERY FAQ SITE MAP
JPL Small-Body Database Browser
Search: [ help ]  
66197 (1999 BO6)
Classification: Main-belt Asteroid          SPK-ID: 2066197
Ephemeris | Orbit Diagram | Orbital Elements | Mission Design | Physical Parameters | Discovery Circumstances ]

[ show orbit diagram ]
Orbital Elements at Epoch 2459200.5 (2020-Dec-17.0) TDB
Reference: JPL 24 (heliocentric ecliptic J2000)
 Element Value Uncertainty (1-sigma)   Units 
e .1168850595112803 3.3343e-08  
a 2.23553963848878 7.1909e-09 au
q 1.974238454804193 7.293e-08 au
i 3.691526957033378 5.2824e-06 deg
node 1.121795484467251 4.6693e-05 deg
peri 255.1781454064539 5.1819e-05 deg
M 116.8026425131433 2.255e-05 deg
tp 2458804.384208278703
(2019-Nov-16.88420828)
7.6218e-05 TDB
period 1220.877216058022
3.34
5.8907e-06
1.613e-08
d
yr
n .2948699470061132 1.4227e-09 deg/d
Q 2.496840822173367 8.0314e-09 au
  Orbit Determination Parameters
   # obs. used (total)      1151  
   data-arc span      11042 days (30.23 yr)  
   first obs. used      1990-10-13  
   last obs. used      2021-01-05  
   planetary ephem.      DE441  
   SB-pert. ephem.      SB441-N16  
   condition code      0  
   norm. resid. RMS      .51143  
   source      ORB  
   producer      Otto Matic  
   solution date      2021-Apr-13 12:20:09  

Additional Information
 Earth MOID = .961742 au 
 Jupiter MOID = 2.54639 au 
 T_jup = 3.627 
[ show covariance matrix ]

Ephemeris | Orbit Diagram | Orbital Elements | Mission Design | Physical Parameters | Discovery Circumstances ]

Physical Parameter Table
Parameter Symbol Value Units Sigma Reference Notes
absolute magnitude H 15.82   n/a E2021B10  
diameter diameter 4.001 km 0.057 urn:nasa:pds:neowise_diameters_albedos::2.0[mainbelt] (http://adsabs.harvard.edu/abs/2011ApJ...741...68M)  
geometric albedo albedo 0.062   0.009 urn:nasa:pds:neowise_diameters_albedos::2.0[mainbelt] (http://adsabs.harvard.edu/abs/2011ApJ...741...68M)  

66197 (1999 BO6)          Discovered 1999-Jan-20 by ODAS at Caussols
Reference: 20030910/Numbers.arcLast Updated: 2004-04-19

Alternate Designations
 1999 BO6 = 2000 SE67 
Ephemeris | Orbit Diagram | Orbital Elements | Mission Design | Physical Parameters | Discovery Circumstances ]
ABOUT SSD CREDITS/AWARDS PRIVACY/COPYRIGHT GLOSSARY LINKS
FirstGov 2021-Jun-15 17:40 UT
(server date/time)  
NASA Home Page
Site Manager:   Ryan S. Park
Webmaster  Alan B. Chamberlin